Lapse_Rate
6.1 6.5 6.5 6.5 6.5 6.5 6.5 6.5 6.5 6.5 6.5 6.5 6.5 6.5 6.5 6.3 5.7 5.7 5.3 4.6 3.0 3.1 3.0 3.1 2.4 1.0 0.1 0.1 0.6 1.5 2.5 2.5 2.8 3.4 6.0 6.4 6.6 2.7 2.3 4.0 6.1 5.4 5.1 4.6
6.5 6.5 6.5 6.5 6.5 6.5 6.5 6.5 6.5 6.5 6.5 6.5 6.5 6.5 6.5 6.5 6.4 5.8 5.4 3.2 1.9 3.2 3.4 2.0 1.9 0.9 0.4 0.4 1.5 2.4 2.3 2.7 3.4 4.5 6.0 6.5 6.9 3.0 2.0 3.1 5.4 5.7 4.7 4.5
6.5 6.5 6.5 6.5 6.5 6.5 6.5 6.5 6.5 6.5 6.5 6.5 6.5 6.5 6.5 6.5 6.1 4.7 4.3 2.5 4.0 3.5 3.1 2.6 2.4 1.4 0.8 1.1 1.6 2.8 3.4 3.4 4.2 4.4 5.6 6.4 5.0 2.0 3.1 3.8 4.8 4.3 4.5 4.2
6.5 6.5 6.5 6.5 6.5 6.5 6.5 6.5 6.5 6.5 6.5 6.5 6.5 6.5 6.5 6.5 6.5 6.5 5.5 3.9 3.4 3.2 3.3 2.5 2.2 2.1 1.3 1.6 1.8 4.1 4.6 3.0 4.1 4.1 5.2 5.7 6.1 4.7 4.5 5.3 6.0 4.4 4.6 4.2
6.5 6.5 6.5 6.5 6.5 6.5 6.5 6.5 6.5 6.5 6.5 6.5 6.5 6.5 6.5 6.5 6.5 6.5 6.5 5.7 5.2 2.9 3.0 2.3 2.2 1.7 2.3 2.5 2.3 4.5 3.7 3.7 4.1 4.6 6.1 5.7 6.4 5.6 6.1 6.9 5.0 4.9 4.3 4.1
6.5 5.8 6.5 6.5 6.5 6.5 6.5 6.5 6.5 6.5 6.5 6.5 6.5 6.5 6.5 6.5 6.5 6.5 6.5 6.1 5.2 4.4 3.2 2.0 2.4 2.6 3.2 3.6 4.1 5.0 4.1 4.1 3.7 4.3 4.5 5.2 4.9 5.1 4.7 5.1 4.3 4.4 4.2 3.7
6.5 6.5 6.5 6.4 6.5 6.5 6.5 6.5 6.5 6.5 6.5 6.5 6.5 6.5 6.5 6.5 6.5 6.5 6.5 5.2 4.7 3.9 2.8 2.2 2.5 3.8 4.2 3.6 5.0 5.7 4.6 4.2 3.9 3.6 3.7 3.4 3.4 5.1 4.3 3.9 4.8 4.5 3.8 3.2
6.5 6.5 6.5 6.5 6.5 6.5 6.5 6.5 6.5 6.5 6.5 6.5 6.5 6.5 6.5 6.5 6.1 5.1 4.8 4.6 5.7 4.3 3.2 3.2 2.4 3.4 3.5 4.1 4.2 4.9 4.6 4.3 4.6 3.7 3.5 3.1 2.6 4.2 4.9 4.8 4.8 4.5 3.8 2.8
6.5 6.5 6.5 6.5 6.5 6.5 6.5 6.5 6.5 6.5 6.5 6.5 6.5 6.5 6.5 6.5 6.5 6.5 5.7 4.4 3.9 3.4 3.1 3.6 3.5 3.9 4.4 4.3 4.7 5.2 4.7 4.6 4.2 4.1 4.3 4.1 4.1 4.7 4.8 5.1 4.3 3.3 2.8 2.9
6.5 6.5 6.5 6.5 6.4 6.5 6.5 6.5 6.5 6.5 6.5 6.5 6.5 6.5 6.5 6.5 6.5 6.5 6.5 6.3 5.9 4.4 3.0 3.0 2.8 3.4 4.5 4.8 4.5 5.5 5.0 4.5 4.7 4.2 4.0 4.6 5.5 5.5 5.4 5.2 4.7 3.9 2.6 2.6
6.5 6.5 6.5 6.5 6.5 6.5 6.5 6.5 6.5 6.5 6.5 6.5 6.5 6.5 6.5 6.5 6.5 6.5 6.5 6.6 6.5 5.5 4.8 3.2 3.1 2.9 3.2 3.7 4.3 4.6 5.9 5.2 4.7 4.3 4.5 4.5 4.2 5.0 4.8 4.3 4.2 3.7 3.9 3.5
6.5 6.5 6.5 6.5 6.5 6.5 6.5 6.5 6.5 6.5 6.5 6.5 6.5 6.5 6.5 6.5 6.5 6.5 6.5 6.7 6.7 6.7 6.0 3.9 2.9 2.5 2.3 3.9 4.4 4.8 4.4 5.1 5.0 4.7 4.5 4.6 4.4 4.3 5.0 5.0 4.9 4.2 2.4 4.1
6.5 6.5 6.5 6.5 6.5 6.5 6.5 6.5 6.5 6.5 6.5 6.5 6.5 6.5 6.5 6.5 6.5 6.5 6.4 6.6 6.6 6.4 6.5 6.3 4.0 2.9 2.3 2.3 3.5 4.7 4.4 4.6 4.9 4.7 4.8 4.7 4.3 4.2 4.1 4.8 4.8 3.7 3.5 3.3
6.3 6.5 6.5 6.5 6.5 6.5 6.5 6.5 6.5 6.5 6.5 6.5 6.5 6.5 6.5 6.5 6.5 6.5 6.6 6.7 6.1 6.4 6.7 6.4 6.2 3.6 2.4 2.1 2.3 3.2 3.6 3.7 4.1 4.7 4.7 4.9 4.2 4.4 4.5 4.2 3.9 3.8 3.3 3.2
6.5 6.5 6.5 6.5 6.5 6.5 6.5 6.5 6.5 6.5 6.5 6.5 6.5 6.5 6.5 6.5 6.5 6.4 6.5 6.7 6.9 6.8 6.1 6.6 6.2 5.3 3.2 1.9 1.4 1.6 2.7 3.4 3.7 4.4 4.5 4.8 4.6 4.6 4.5 4.5 4.6 4.2 4.2 3.9
6.5 6.5 6.5 6.5 6.5 6.5 6.5 6.5 6.5 6.5 6.5 6.5 6.5 6.5 6.5 6.2 6.9 6.6 6.6 6.8 6.5 6.6 6.4 5.8 5.9 5.4 4.8 3.2 1.7 1.4 1.5 2.1 3.3 3.7 4.3 4.6 4.6 4.6 4.2 4.1 4.3 4.3 3.9 3.8
6.5 6.5 6.5 6.5 6.5 6.5 6.5 6.5 6.5 6.5 6.5 6.5 6.5 6.5 6.5 6.5 6.5 6.8 7.2 6.9 7.4 7.0 7.1 5.7 5.3 4.6 4.0 2.6 2.2 1.2 1.0 1.8 3.7 4.4 4.5 4.4 4.4 4.1 4.1 4.1 4.0 4.0 3.8 3.8
6.5 6.5 6.5 6.5 6.5 6.5 6.5 6.5 6.5 6.5 6.5 6.5 6.5 6.5 6.5 6.7 7.1 7.3 7.7 6.6 6.0 6.9 5.0 6.1 5.4 3.4 2.4 2.4 2.4 1.4 1.3 1.3 2.2 2.6 4.0 5.0 4.3 4.3 4.2 4.2 4.2 4.1 3.8 3.5
6.5 6.5 6.5 6.5 6.5 6.5 6.5 6.5 6.5 6.5 6.5 6.5 6.5 6.5 6.7 7.1 7.1 6.8 7.7 6.6 6.9 4.8 4.3 5.1 4.4 2.6 2.1 2.2 2.2 2.6 1.8 1.4 2.0 3.3 3.2 3.3 3.9 3.9 4.1 4.3 4.3 4.2 3.9 3.7
6.5 6.5 6.5 6.5 6.5 6.5 6.5 6.5 7.0 6.6 6.5 6.5 6.7 6.5 6.6 6.9 6.5 6.5 7.0 6.9 5.1 4.7 4.3 5.5 4.0 1.8 1.7 3.1 2.9 3.9 2.9 2.6 1.9 2.1 3.0 2.4 2.8 2.6 2.2 2.8 2.7 2.8 3.3 3.5
6.5 6.5 6.5 6.5 6.5 6.5 6.5 6.7 6.9 6.5 6.5 6.9 7.1 7.0 6.9 6.5 6.8 7.3 7.8 6.1 5.2 5.6 4.4 5.9 2.9 1.0 2.4 4.2 4.0 3.8 4.1 4.2 4.3 4.1 3.9 3.7 3.4 2.8 3.0 2.1 1.8 1.5 1.7 1.6
6.5 6.5 6.5 6.5 6.5 6.5 6.9 6.7 6.5 6.6 6.9 7.2 7.2 7.2 7.2 7.3 7.4 7.6 7.8 7.4 5.8 5.8 6.2 4.3 2.4 -0.3 2.8 5.0 4.9 4.8 4.5 4.2 4.2 2.8 3.2 2.8 3.4 4.1 3.6 3.2 2.7 1.8 1.6 1.8
6.5 6.5 6.5 6.5 6.5 6.8 7.2 6.7 7.0 7.0 6.8 7.0 7.0 7.2 6.9 7.1 7.3 6.7 7.5 6.9 6.5 5.3 5.6 4.3 3.5 2.1 2.7 3.4 4.3 3.2 3.3 3.7 3.1 2.5 2.0 2.3 1.9 2.2 2.4 2.2 2.0 2.2 2.1 2.2
6.5 6.7 6.5 6.5 6.4 6.6 6.7 6.9 7.2 7.1 7.0 7.0 7.0 7.1 7.1 6.8 6.5 7.0 7.5 5.9 4.9 6.3 5.6 4.7 4.1 3.5 2.6 3.5 2.8 2.2 2.6 2.7 2.8 1.6 1.4 2.2 2.2 2.2 2.4 2.3 2.3 2.2 2.3 2.3
6.6 6.5 6.5 6.5 6.4 6.6 6.9 7.1 7.0 7.0 7.1 7.1 6.9 7.0 7.0 7.0 6.7 6.8 6.7 6.2 6.0 6.1 5.5 5.0 4.2 4.3 4.3 4.5 3.7 3.4 2.9 3.1 2.2 1.8 1.8 2.4 2.8 2.6 2.4 2.3 2.6 2.6 3.0 3.1
6.6 6.5 6.5 6.5 6.7 6.7 6.7 7.0 7.0 6.9 6.9 7.0 6.9 6.8 6.8 7.0 6.8 6.6 6.2 6.3 6.1 5.9 5.4 4.0 4.0 3.5 4.0 3.7 3.8 3.5 3.6 2.9 2.8 2.9 2.8 2.5 2.8 3.1 3.1 2.7 2.7 3.8 4.0 3.5
Wind_Speed
4 8 15 20 19 8 3 4 6 2 8 6 10 15 17 15 6 12 16 13 12 9 12 11 9 9 12 11 13 10 11 8 7 8 8 11 13 12 7 7 18 19 20 21
4 21 9 7 11 11 13 12 13 6 9 6 9 12 12 16 16 17 14 10 9 5 7 6 9 11 15 16 14 14 14 10 10 9 9 7 9 11 12 10 14 21 20 20
14 7 15 14 13 13 14 14 5 10 8 6 5 12 9 9 5 7 6 9 5 7 8 6 9 11 11 14 16 16 10 10 9 7 11 8 6 7 7 9 8 9 19 20
12 15 16 9 16 15 17 6 10 11 4 4 1 6 6 9 9 13 6 6 6 6 3 6 9 12 13 13 12 12 9 9 9 4 8 19 12 13 12 13 12 10 18 17
7 3 9 18 20 16 8 6 8 6 4 3 1 2 7 3 8 12 5 2 3 6 6 8 11 13 12 8 11 10 8 10 11 6 6 10 15 13 12 11 12 11 10 15
10 5 2 4 3 16 7 4 6 4 2 3 9 7 4 4 4 4 2 2 2 3 6 7 6 7 10 11 12 9 10 10 10 11 5 9 9 8 8 8 10 9 8 8
11 17 10 6 5 3 4 9 1 2 3 6 0 1 6 9 4 3 6 5 4 3 4 6 7 9 11 11 11 9 11 11 11 11 10 9 7 6 11 10 10 11 9 7
2 5 5 3 17 7 7 9 5 8 6 4 3 6 5 3 8 7 5 4 2 5 2 4 7 9 9 11 9 9 12 11 13 11 10 10 8 4 6 8 7 8 9 11
3 5 6 2 4 10 5 9 8 4 1 3 4 5 10 12 16 7 7 7 7 7 7 5 3 7 10 10 10 11 11 11 14 15 11 10 12 10 8 10 8 6 5 5
5 5 5 8 6 12 6 7 4 2 4 5 3 3 2 15 18 19 21 17 17 13 7 6 6 1 6 10 11 11 12 12 12 13 11 10 9 13 13 11 11 11 7 7
2 3 8 4 7 11 6 5 5 2 2 5 3 2 5 5 12 14 15 16 16 16 17 8 4 5 0 5 7 9 11 10 9 10 11 10 9 8 8 10 10 9 10 11
2 2 3 4 11 14 13 8 6 3 4 2 1 3 8 7 12 16 16 16 16 15 15 9 7 5 6 4 4 5 4 6 8 9 10 11 11 8 6 8 10 9 8 9
4 1 2 2 1 7 7 7 7 5 2 2 0 4 4 15 20 18 18 18 16 17 18 15 10 6 4 5 2 6 5 8 9 8 10 10 10 11 11 9 7 11 11 9
3 0 4 4 4 5 5 7 3 4 1 4 8 14 22 21 20 19 20 17 13 13 16 13 14 8 6 4 4 3 5 5 6 8 9 11 11 11 12 11 11 10 13 12
3 3 2 1 5 4 6 9 9 5 5 5 12 17 17 20 18 14 12 11 15 14 14 16 14 12 7 6 5 5 4 3 5 7 8 8 10 11 11 11 10 10 10 12
2 3 2 3 7 5 10 9 10 12 13 13 18 26 11 12 14 14 11 11 9 10 14 14 13 12 12 7 6 5 4 6 3 6 6 6 6 8 10 10 10 9 10 10
1 2 2 4 2 3 2 13 9 10 8 6 8 15 12 14 15 14 19 19 17 12 14 13 11 10 11 6 7 5 5 5 1 2 5 5 6 6 5 7 8 9 10 9
3 2 3 3 3 4 9 17 10 18 17 5 12 16 10 14 20 20 15 18 15 9 13 16 12 8 6 5 5 4 5 5 5 7 6 2 5 4 5 5 7 7 7 10
10 2 2 1 1 7 9 15 11 10 15 8 16 22 18 18 21 23 13 5 10 14 12 17 9 4 5 6 5 4 5 5 6 7 5 6 5 5 4 5 5 4 5 6
12 8 4 4 1 2 6 19 17 10 9 18 25 26 24 20 13 20 14 13 16 19 16 18 6 2 5 5 4 3 4 5 6 5 5 4 6 6 6 5 4 1 2 2
8 5 7 6 2 3 19 22 17 2 10 30 28 28 29 23 20 29 19 24 18 17 24 8 5 5 4 2 3 5 5 6 4 5 7 8 6 7 6 6 5 4 5 6
5 3 4 5 4 5 23 13 11 11 21 24 26 26 31 30 31 30 21 20 18 17 15 3 5 9 7 5 4 6 7 5 7 7 9 9 8 6 6 9 6 7 7 7
5 5 3 4 3 9 16 11 14 15 19 20 23 29 27 23 22 20 16 15 12 14 6 6 6 11 11 8 5 9 6 8 8 10 9 10 10 10 9 9 8 7 7 6
7 10 3 5 2 15 15 15 17 19 18 19 22 22 24 10 6 3 7 7 7 5 7 10 11 11 14 7 9 8 9 9 10 11 10 10 11 10 10 8 8 7 7 6
6 6 10 4 5 15 11 19 19 21 21 21 22 21 23 23 20 12 9 8 8 5 6 11 13 12 13 9 10 10 11 11 10 10 9 11 10 10 10 11 8 8 10 8
6 5 5 3 12 7 13 20 22 20 21 20 21 23 24 24 21 21 19 15 13 10 9 13 13 14 12 12 12 13 11 11 9 9 8 8 6 6 6 7 8 20 18 19
Wind_Direction
207 213 215 207 212 220 175 225 249 281 295 304 272 271 270 277 243 262 270 272 273 253 246 230 196 160 151 167 173 170 186 177 170 191 191 195 199 176 159 177 204 190 181 177
212 234 220 226 228 237 246 257 265 281 247 239 266 269 266 273 268 260 262 262 262 258 272 204 164 159 166 173 174 188 197 174 187 197 212 194 191 167 159 168 195 184 171 172
213 206 204 207 225 226 235 237 244 251 284 265 280 278 251 266 261 257 237 239 232 242 252 173 163 176 170 175 183 198 190 172 179 190 206 211 169 132 154 174 178 175 166 170
240 241 256 217 227 219 244 192 242 262 259 239 43 286 305 267 290 285 279 240 257 271 192 167 171 184 190 193 186 193 183 146 150 165 167 174 165 159 173 181 179 172 170 168
221 216 218 235 234 230 236 207 213 225 190 343 252 329 267 268 271 277 225 237 274 239 196 172 185 188 195 188 189 189 151 144 154 167 156 152 157 160 169 177 164 172 170 166
229 261 207 212 234 224 229 167 50 60 71 293 201 181 267 232 222 342 90 116 59 159 198 201 190 147 189 187 190 175 153 151 152 161 174 153 140 124 131 159 163 173 171 167
249 251 242 212 246 182 167 155 194 211 194 236 232 111 270 284 289 270 177 214 149 117 89 179 173 174 185 187 177 169 158 154 158 162 167 162 147 140 151 163 175 173 173 178
199 312 169 206 210 185 188 177 167 190 190 234 131 223 247 246 305 252 276 180 112 77 3 149 176 187 182 188 180 175 167 164 169 170 172 175 183 162 159 170 176 185 187 189
346 253 322 50 333 176 185 205 185 96 25 67 228 286 304 30 12 357 95 71 27 51 39 20 173 190 201 187 185 187 179 173 177 176 172 173 187 204 192 180 169 175 161 162
3 296 37 310 324 27 24 340 159 163 181 218 259 254 265 19 21 27 20 15 7 358 28 48 12 159 204 205 200 187 190 185 187 177 166 184 187 182 185 177 180 177 164 156
42 57 313 346 45 355 360 7 334 282 135 181 168 252 124 59 39 27 16 10 2 358 350 346 23 338 201 199 204 199 191 181 186 180 178 178 185 183 171 177 183 184 183 174
20 86 349 299 335 98 75 34 28 31 9 25 199 231 138 64 24 12 360 356 355 360 354 331 339 360 8 162 181 201 185 184 186 182 176 179 193 196 177 168 177 177 198 214
346 120 4 13 100 52 37 20 23 338 8 68 325 216 232 354 353 358 352 346 350 351 352 351 344 346 34 10 207 207 202 213 205 176 184 185 175 183 202 211 169 174 181 183
74 110 165 193 325 339 313 320 299 133 266 315 258 305 314 327 335 342 338 333 337 338 336 337 354 329 337 24 3 358 220 204 197 188 183 187 181 181 190 194 189 183 185 176
95 188 205 210 250 240 284 297 292 272 238 252 296 288 292 305 314 314 311 315 323 324 327 332 340 341 334 350 4 9 344 273 202 192 183 201 182 177 179 191 190 179 177 180
17 273 64 286 261 256 286 321 310 266 259 254 267 279 265 289 315 309 315 309 304 314 316 315 320 336 333 328 334 342 347 319 236 192 204 177 182 165 167 177 182 177 177 181
241 169 160 270 191 274 13 354 332 338 324 339 274 285 6 330 327 339 324 313 311 311 300 297 304 318 316 326 317 341 328 331 10 184 182 163 159 161 172 163 166 182 182 180
267 158 241 220 175 230 124 28 347 327 288 331 293 304 14 337 319 313 295 272 275 304 302 296 294 312 318 334 326 355 5 38 43 51 29 80 144 150 162 174 188 184 175 184
26 321 283 59 121 128 43 4 334 332 303 46 344 324 323 317 313 296 285 315 313 321 308 287 275 271 333 330 351 35 47 40 48 62 30 15 73 98 155 178 196 197 173 183
15 35 82 7 22 62 11 343 324 296 266 351 332 318 316 320 302 281 278 292 308 307 302 282 190 103 50 348 2 75 69 62 57 56 64 43 54 73 69 66 80 43 139 158
357 5 28 3 339 123 14 350 329 26 322 321 315 306 300 291 261 277 281 287 288 292 299 237 139 114 96 30 13 59 60 50 33 61 68 62 58 73 73 73 59 56 66 80
10 12 1 352 352 350 353 344 1 304 304 305 302 296 290 276 272 259 259 260 274 284 294 200 116 96 60 67 95 65 56 39 52 55 65 60 61 59 64 76 66 64 66 69
32 10 305 11 350 326 331 320 314 312 309 310 311 306 296 279 259 242 227 236 255 278 221 127 110 102 74 55 75 75 40 59 69 66 57 60 62 60 53 63 64 64 60 69
350 6 349 343 330 336 318 332 333 330 324 324 327 331 348 321 26 133 197 218 246 196 169 112 104 77 82 60 64 68 69 65 69 70 63 62 66 61 56 54 51 56 49 57
348 338 318 277 323 326 341 341 335 337 339 345 352 353 8 32 37 49 58 65 67 42 86 89 87 79 76 68 62 57 63 69 69 69 72 76 72 67 69 63 58 62 56 57
359 349 351 303 324 312 314 330 336 343 348 353 359 4 12 31 36 44 44 37 37 28 46 71 74 75 69 64 54 56 53 67 71 69 64 68 71 74 82 80 74 61 68 62